Location: Powell Observatory
(38.6461°N, 94.6997°W)
Time: 06:13:39
(UTC-06:00)

N. Korean satellite - Visible Passes

Search period start: 06 December 2021 00:00
Search period end: 16 December 2021 00:00
Orbit: 446 x 495 km, 97.3° (Epoch: 06 December)

Date Brightness Start Highest point End Pass type
(mag) Time Alt. Az. Time Alt. Az. Time Alt. Az.
06 Dec 6.3 05:45:45 10° N 05:49:06 60° WNW 05:52:25 10° SSW visible
06 Dec 10.0 17:53:24 10° WSW 17:54:52 12° W 17:56:20 10° WNW visible
07 Dec 7.3 05:17:17 10° NNE 05:20:35 48° E 05:23:50 10° S visible
07 Dec 8.9 17:23:07 10° SSW 17:26:11 28° W 17:29:13 10° NW visible
08 Dec 9.1 04:49:25 10° NE 04:51:56 19° E 04:54:26 10° SE visible
08 Dec 7.8 06:22:32 10° NNW 06:25:01 19° WNW 06:27:28 10° WSW visible
09 Dec 6.6 05:53:21 10° N 05:56:36 46° WNW 05:59:51 10° SSW visible
10 Dec 6.8 05:26:14 24° NNE 05:28:05 64° E 05:31:27 10° S visible
10 Dec 9.4 17:30:56 10° SSW 17:33:43 22° W 17:36:29 10° NW visible
11 Dec 8.7 04:58:04 19° ENE 04:59:26 24° E 05:02:17 10° SSE visible
11 Dec 8.0 06:32:10 15° WNW 06:32:25 16° WNW 06:34:31 10° WSW visible
12 Dec 10.0 04:30:10 10° E 04:30:41 10° E 04:31:13 10° E visible
12 Dec 6.9 06:03:47 35° WNW 06:04:01 35° WNW 06:07:09 10° SW visible
13 Dec 6.3 05:35:19 78° NE 05:35:30 84° ESE 05:38:54 10° S visible
13 Dec 9.6 17:38:47 10° SW 17:41:11 18° W 17:43:34 10° NW visible
14 Dec 8.3 05:06:46 31° E 05:06:52 31° E 05:09:56 10° SSE visible
14 Dec 8.5 06:40:51 11° W 06:40:51 11° W 06:41:19 10° W visible
15 Dec 9.7 04:38:10 13° E 04:38:10 13° E 04:39:49 10° ESE visible
15 Dec 7.6 06:12:15 25° W 06:12:15 25° W 06:14:21 10° SW visible
